QPF
0.00 0.00 0.00 0.01 0.01 0.00 0.00 0.00 0.00 0.00 0.00 0.00 0.00 0.00 0.00 0.00 0.00 0.00 0.01 0.01 0.03 0.01 0.01 0.01 0.01 0.01 0.01 0.01 0.00 0.00 0.00 0.00 0.01
0.00 0.00 0.00 0.00 0.00 0.00 0.00 0.00 0.00 0.00 0.00 0.00 0.00 0.00 0.00 0.00 0.00 0.00 0.00 0.00 0.00 0.00 0.00 0.00 0.00 0.00 0.00 0.00 0.00 0.00 0.00 0.00 0.00
0.00 0.00 0.00 0.00 0.00 0.00 0.00 0.00 0.00 0.00 0.00 0.00 0.00 0.00 0.00 0.00 0.00 0.00 0.00 0.00 0.00 0.00 0.00 0.00 0.00 0.00 0.00 0.00 0.00 0.00 0.00 0.00 0.00
0.00 0.00 0.00 0.00 0.00 0.00 0.00 0.00 0.00 0.00 0.00 0.00 0.00 0.00 0.00 0.00 0.00 0.00 0.00 0.00 0.00 0.00 0.00 0.00 0.00 0.00 0.00 0.00 0.00 0.00 0.00 0.00 0.00
0.00 0.00 0.00 0.00 0.00 0.00 0.00 0.00 0.00 0.00 0.00 0.00 0.00 0.00 0.00 0.00 0.00 0.00 0.00 0.00 0.00 0.00 0.00 0.00 0.00 0.00 0.00 0.00 0.00 0.00 0.00 0.00 0.00
0.00 0.00 0.00 0.00 0.00 0.00 0.00 0.00 0.00 0.00 0.00 0.00 0.00 0.00 0.00 0.00 0.00 0.00 0.00 0.00 0.00 0.00 0.00 0.00 0.00 0.00 0.00 0.00 0.00 0.00 0.00 0.00 0.00
0.00 0.00 0.00 0.00 0.00 0.00 0.00 0.00 0.00 0.00 0.00 0.00 0.00 0.00 0.00 0.00 0.00 0.00 0.00 0.00 0.00 0.00 0.00 0.00 0.00 0.00 0.00 0.00 0.00 0.00 0.00 0.00 0.00
0.00 0.00 0.00 0.00 0.00 0.00 0.00 0.00 0.00 0.00 0.00 0.00 0.00 0.00 0.00 0.00 0.00 0.00 0.00 0.00 0.00 0.00 0.00 0.00 0.00 0.00 0.00 0.00 0.00 0.00 0.00 0.00 0.00
0.00 0.00 0.00 0.00 0.00 0.00 0.00 0.00 0.00 0.00 0.00 0.00 0.00 0.00 0.00 0.00 0.00 0.00 0.00 0.00 0.00 0.00 0.00 0.00 0.00 0.00 0.00 0.00 0.00 0.00 0.00 0.00 0.00
0.00 0.00 0.00 0.00 0.00 0.00 0.00 0.00 0.00 0.00 0.00 0.00 0.00 0.00 0.00 0.00 0.00 0.00 0.00 0.00 0.00 0.00 0.00 0.00 0.00 0.00 0.00 0.00 0.00 0.00 0.00 0.00 0.00
0.00 0.00 0.00 0.00 0.00 0.00 0.00 0.00 0.00 0.00 0.00 0.00 0.00 0.00 0.00 0.00 0.00 0.00 0.00 0.00 0.00 0.00 0.00 0.00 0.00 0.00 0.00 0.00 0.00 0.00 0.00 0.00 0.00
0.00 0.00 0.00 0.00 0.00 0.00 0.00 0.00 0.00 0.00 0.00 0.00 0.00 0.00 0.00 0.00 0.00 0.00 0.00 0.00 0.00 0.00 0.00 0.00 0.00 0.00 0.00 0.00 0.00 0.00 0.00 0.00 0.00
0.00 0.00 0.00 0.00 0.00 0.00 0.00 0.00 0.00 0.00 0.00 0.00 0.00 0.00 0.00 0.00 0.00 0.00 0.00 0.00 0.00 0.00 0.00 0.00 0.00 0.00 0.00 0.00 0.00 0.00 0.00 0.00 0.00
0.00 0.00 0.00 0.00 0.00 0.00 0.00 0.00 0.00 0.00 0.00 0.00 0.00 0.00 0.00 0.00 0.00 0.00 0.00 0.00 0.00 0.00 0.00 0.00 0.00 0.00 0.00 0.00 0.00 0.00 0.00 0.00 0.00
0.00 0.00 0.00 0.00 0.00 0.00 0.00 0.00 0.00 0.00 0.00 0.00 0.00 0.00 0.00 0.00 0.00 0.00 0.00 0.00 0.00 0.00 0.00 0.00 0.00 0.00 0.00 0.00 0.00 0.00 0.00 0.00 0.00
0.00 0.00 0.00 0.00 0.00 0.00 0.00 0.00 0.00 0.00 0.00 0.00 0.00 0.00 0.00 0.00 0.00 0.00 0.00 0.00 0.00 0.00 0.00 0.00 0.00 0.00 0.00 0.00 0.00 0.00 0.00 0.00 0.00
0.00 0.00 0.00 0.00 0.00 0.00 0.00 0.00 0.00 0.00 0.00 0.00 0.00 0.00 0.00 0.00 0.00 0.00 0.00 0.00 0.00 0.00 0.00 0.00 0.00 0.00 0.00 0.00 0.00 0.00 0.00 0.00 0.00
0.01 0.00 0.00 0.00 0.00 0.00 0.00 0.00 0.00 0.00 0.00 0.00 0.00 0.00 0.00 0.00 0.00 0.00 0.00 0.00 0.00 0.00 0.00 0.00 0.00 0.00 0.00 0.00 0.00 0.00 0.00 0.00 0.00
0.04 0.03 0.00 0.00 0.00 0.00 0.00 0.00 0.00 0.00 0.00 0.00 0.00 0.00 0.00 0.00 0.00 0.00 0.00 0.00 0.00 0.00 0.00 0.00 0.00 0.00 0.00 0.00 0.00 0.00 0.00 0.00 0.00
0.03 0.05 0.06 0.01 0.00 0.00 0.00 0.01 0.00 0.00 0.00 0.00 0.01 0.01 0.00 0.00 0.00 0.00 0.00 0.01 0.00 0.00 0.00 0.00 0.00 0.00 0.00 0.00 0.00 0.00 0.00 0.00 0.00
MSLP
1018.76 1019.04 1019.32 1019.61 1019.89 1020.10 1020.33 1020.50 1020.68 1020.72 1020.84 1020.99 1020.98 1020.91 1020.91 1020.90 1021.02 1021.16 1021.35 1021.28 1021.27 1021.41 1021.54 1021.43 1021.47 1021.51 1021.57 1021.62 1021.65 1021.65 1021.54 1021.51 1021.40
1018.90 1019.28 1019.53 1019.77 1019.98 1020.31 1020.50 1020.64 1020.84 1020.99 1021.07 1021.20 1021.19 1021.23 1021.19 1021.20 1021.40 1021.55 1021.73 1021.69 1021.71 1021.83 1021.93 1021.93 1021.97 1022.00 1022.00 1022.01 1022.04 1022.07 1022.06 1022.00 1021.85
1019.05 1019.38 1019.60 1019.88 1020.19 1020.34 1020.55 1020.82 1021.06 1021.22 1021.21 1021.27 1021.45 1021.44 1021.47 1021.58 1021.78 1021.88 1021.98 1021.91 1021.96 1022.09 1022.24 1022.33 1022.30 1022.40 1022.41 1022.44 1022.38 1022.33 1022.44 1022.38 1022.36
1019.11 1019.45 1019.74 1020.00 1020.19 1020.40 1020.71 1020.98 1021.23 1021.37 1021.38 1021.31 1021.45 1021.62 1021.65 1021.75 1021.98 1022.06 1022.18 1022.09 1022.22 1022.41 1022.52 1022.58 1022.69 1022.74 1022.79 1022.84 1022.81 1022.76 1022.67 1022.66 1022.70
1019.17 1019.58 1019.81 1020.08 1020.36 1020.61 1020.84 1021.08 1021.29 1021.44 1021.51 1021.50 1021.55 1021.64 1022.04 1022.04 1022.14 1022.29 1022.29 1022.31 1022.43 1022.67 1022.89 1022.92 1023.00 1023.12 1023.05 1023.16 1023.07 1023.21 1023.27 1023.22 1023.14
1019.34 1019.65 1019.93 1020.18 1020.46 1020.71 1020.94 1021.13 1021.30 1021.49 1021.59 1021.55 1021.56 1021.74 1022.08 1022.25 1022.36 1022.45 1022.42 1022.52 1022.73 1022.97 1023.16 1023.27 1023.36 1023.45 1023.39 1023.52 1023.49 1023.41 1023.51 1023.50 1023.58
1019.54 1019.83 1020.01 1020.25 1020.49 1020.79 1020.99 1021.14 1021.31 1021.49 1021.59 1021.58 1021.51 1021.71 1022.06 1022.33 1022.34 1022.42 1022.44 1022.64 1022.91 1023.18 1023.38 1023.51 1023.54 1023.62 1023.58 1023.76 1023.70 1023.73 1023.87 1023.86 1023.95
1019.71 1019.97 1020.10 1020.41 1020.61 1020.85 1020.99 1021.22 1021.43 1021.57 1021.69 1021.68 1021.53 1021.70 1021.98 1022.22 1022.15 1022.34 1022.44 1022.65 1022.90 1023.15 1023.36 1023.47 1023.63 1023.80 1023.75 1023.91 1024.03 1024.09 1024.10 1024.12 1024.12
1019.64 1020.01 1020.21 1020.43 1020.60 1020.88 1021.04 1021.23 1021.30 1021.50 1021.58 1021.54 1021.49 1021.69 1021.89 1022.05 1022.12 1022.26 1022.37 1022.58 1022.81 1023.10 1023.31 1023.46 1023.61 1023.80 1024.07 1023.97 1024.14 1024.29 1024.36 1024.44 1024.36
1019.43 1019.79 1020.03 1020.32 1020.52 1020.70 1020.87 1020.99 1021.09 1021.26 1021.44 1021.25 1021.44 1021.62 1021.90 1021.92 1022.13 1022.30 1022.31 1022.48 1022.74 1023.00 1023.16 1023.41 1023.61 1023.80 1023.95 1024.05 1024.13 1024.36 1024.59 1024.67 1024.61
1019.02 1019.60 1019.89 1020.01 1020.19 1020.42 1020.59 1020.71 1020.88 1020.91 1020.93 1021.05 1021.23 1021.46 1021.57 1021.82 1021.98 1022.24 1022.31 1022.38 1022.58 1022.80 1023.00 1023.27 1023.49 1023.73 1023.95 1024.18 1024.30 1024.37 1024.47 1024.65 1024.78
1018.48 1019.14 1019.54 1019.61 1019.71 1020.03 1020.26 1020.46 1020.51 1020.74 1020.74 1020.99 1021.06 1021.29 1021.48 1021.77 1022.02 1022.18 1022.37 1022.36 1022.50 1022.62 1022.84 1023.09 1023.28 1023.55 1023.62 1023.89 1024.22 1024.43 1024.60 1024.77 1024.81
1018.05 1018.66 1019.01 1019.04 1019.33 1019.61 1019.93 1020.25 1020.53 1020.64 1020.83 1021.06 1021.19 1021.17 1021.35 1021.58 1021.98 1022.03 1022.30 1022.38 1022.62 1022.51 1022.55 1022.85 1023.06 1023.30 1023.52 1023.74 1023.98 1024.29 1024.45 1024.64 1024.70
1017.54 1018.00 1018.26 1018.51 1018.80 1019.15 1019.54 1019.94 1020.18 1020.65 1020.88 1021.07 1021.17 1021.35 1021.36 1021.40 1021.67 1021.93 1022.19 1022.17 1022.35 1022.67 1022.67 1022.85 1023.05 1023.16 1023.24 1023.34 1023.64 1024.01 1024.37 1024.57 1024.67
1017.18 1017.52 1017.80 1018.15 1018.60 1018.89 1019.20 1019.54 1019.91 1020.18 1020.53 1020.89 1021.02 1021.24 1021.29 1021.25 1021.45 1021.60 1021.72 1021.98 1022.08 1022.28 1022.45 1022.78 1023.01 1023.11 1023.16 1023.24 1023.44 1023.70 1024.01 1024.27 1024.39
1016.72 1017.21 1017.56 1017.93 1018.40 1018.63 1018.87 1019.16 1019.57 1019.99 1020.22 1020.98 1021.37 1021.41 1021.27 1021.13 1021.10 1021.11 1021.37 1021.59 1021.78 1022.14 1022.35 1022.69 1023.00 1023.14 1023.11 1023.17 1023.39 1023.65 1023.94 1024.21 1024.39
1016.13 1016.55 1017.04 1017.55 1018.05 1018.33 1018.60 1018.90 1019.42 1019.69 1019.96 1020.84 1021.63 1021.86 1021.64 1021.02 1020.75 1020.83 1021.00 1021.22 1021.39 1021.75 1021.99 1022.41 1022.72 1023.03 1023.22 1023.23 1023.25 1023.53 1023.71 1023.86 1024.15
1015.55 1015.85 1016.14 1016.74 1017.26 1017.68 1017.97 1018.27 1018.75 1019.39 1019.83 1019.71 1020.40 1021.35 1021.21 1020.93 1020.54 1020.47 1020.55 1020.79 1021.15 1021.43 1021.56 1022.04 1022.43 1022.69 1023.00 1023.12 1023.20 1023.49 1023.64 1023.86 1024.01
1015.54 1015.74 1015.86 1016.09 1016.60 1017.01 1017.30 1017.68 1017.97 1018.58 1019.06 1019.65 1019.25 1019.45 1019.88 1020.69 1021.06 1020.65 1020.57 1020.69 1021.02 1021.34 1021.68 1022.01 1022.42 1022.66 1023.02 1023.45 1023.92 1024.24 1024.57 1024.51 1024.24
1014.94 1015.28 1015.66 1016.13 1016.23 1016.42 1016.80 1017.17 1017.45 1017.71 1018.07 1018.45 1018.98 1019.32 1019.77 1020.15 1020.84 1021.15 1020.96 1021.00 1021.18 1021.28 1021.40 1021.72 1022.16 1022.44 1022.80 1023.31 1023.70 1023.96 1025.13 1025.42 1024.98
Thickness
5728 5725 5723 5721 5718 5715 5713 5711 5709 5707 5705 5703 5702 5702 5701 5701 5699 5696 5693 5692 5690 5688 5685 5685 5683 5681 5680 5678 5677 5676 5677 5676 5675
5724 5721 5719 5716 5714 5710 5709 5707 5704 5702 5700 5698 5698 5696 5696 5694 5693 5690 5687 5686 5684 5681 5679 5678 5676 5675 5673 5672 5671 5670 5669 5669 5669
5720 5716 5715 5712 5709 5707 5705 5702 5699 5696 5696 5695 5693 5692 5690 5688 5686 5684 5682 5680 5679 5676 5673 5671 5670 5668 5667 5666 5666 5665 5663 5662 5661
5716 5714 5711 5708 5706 5704 5701 5697 5695 5693 5692 5692 5690 5688 5686 5685 5682 5679 5677 5675 5673 5670 5667 5666 5663 5663 5661 5659 5658 5658 5658 5657 5655
5714 5710 5707 5705 5702 5700 5697 5694 5691 5690 5688 5688 5686 5684 5681 5680 5677 5675 5673 5670 5668 5665 5662 5660 5658 5656 5656 5654 5654 5651 5648 5648 5648
5710 5706 5704 5702 5699 5696 5693 5690 5688 5687 5685 5685 5684 5681 5678 5675 5673 5671 5668 5665 5662 5659 5656 5654 5652 5650 5650 5647 5647 5647 5644 5643 5640
5705 5702 5700 5698 5695 5692 5689 5687 5686 5684 5684 5683 5682 5680 5676 5671 5670 5668 5665 5662 5658 5655 5652 5649 5647 5645 5644 5641 5640 5639 5637 5636 5634
5701 5698 5696 5694 5691 5689 5687 5685 5683 5682 5680 5679 5679 5676 5673 5670 5668 5666 5663 5660 5656 5653 5650 5647 5644 5641 5640 5637 5634 5632 5631 5630 5629
5698 5695 5692 5690 5689 5686 5684 5683 5681 5679 5678 5677 5675 5672 5670 5669 5666 5664 5661 5657 5654 5650 5646 5644 5642 5638 5634 5633 5630 5627 5625 5623 5623
5695 5692 5690 5687 5685 5683 5683 5682 5680 5678 5674 5674 5671 5669 5667 5667 5664 5660 5657 5654 5651 5647 5644 5640 5637 5634 5632 5629 5628 5624 5620 5618 5618
5695 5689 5686 5685 5684 5682 5680 5679 5677 5675 5675 5673 5670 5667 5666 5664 5662 5657 5654 5651 5648 5645 5641 5637 5634 5630 5627 5624 5622 5620 5617 5614 5612
5693 5689 5685 5684 5683 5681 5678 5676 5675 5671 5670 5669 5668 5665 5662 5660 5656 5653 5650 5647 5644 5641 5637 5634 5631 5626 5624 5621 5617 5614 5611 5608 5606
5692 5688 5685 5684 5681 5678 5676 5673 5670 5669 5666 5663 5661 5660 5657 5655 5651 5650 5645 5642 5637 5637 5634 5630 5627 5623 5619 5616 5612 5608 5605 5602 5601
5691 5686 5684 5681 5679 5676 5672 5669 5667 5662 5659 5656 5655 5654 5652 5649 5646 5644 5640 5639 5633 5629 5626 5623 5620 5618 5615 5613 5609 5604 5599 5596 5594
5686 5684 5681 5678 5674 5672 5668 5665 5662 5659 5654 5651 5649 5647 5645 5644 5642 5640 5636 5632 5630 5626 5622 5618 5614 5611 5609 5606 5603 5599 5595 5592 5589
5683 5680 5676 5672 5669 5666 5664 5661 5657 5652 5649 5641 5637 5636 5637 5636 5636 5634 5631 5629 5624 5619 5616 5612 5607 5603 5601 5599 5595 5591 5587 5583 5581
5680 5677 5674 5669 5663 5661 5658 5655 5649 5646 5641 5632 5623 5621 5623 5628 5628 5626 5624 5621 5619 5614 5610 5605 5600 5595 5592 5591 5587 5583 5580 5577 5572
5677 5676 5672 5667 5663 5658 5655 5652 5646 5638 5633 5633 5623 5611 5615 5616 5620 5619 5617 5613 5609 5605 5601 5597 5592 5589 5584 5581 5577 5573 5569 5566 5563
5669 5668 5668 5665 5659 5655 5652 5648 5644 5636 5631 5623 5627 5622 5617 5610 5609 5608 5606 5603 5598 5593 5589 5585 5581 5578 5573 5567 5560 5553 5550 5548 5549
5665 5663 5658 5655 5654 5651 5646 5642 5638 5635 5630 5625 5616 5612 5605 5600 5592 5591 5589 5588 5584 5581 5578 5575 5569 5566 5563 5557 5550 5545 5533 5526 5528